Content
SEND FEEDBACK

Daily
Averages
Monthly
Summary
United States of America

PLAIN DEALING, LOUISIANA


Home > North America > United States > Louisiana
Elevation: 291 feet     Latitude: 32 54N     Longitude: 093 41W

WEATHER
 
SELECT A DAY
Number of Records: 185,511;   Date Range: 1/1/95 - 10/24/14
 
SHARE

PRINT THIS DATA

[ ← Previous Day ]
WEATHER ALMANAC - JANUARY 31, 2013
[ Next Day → ]
[ °C ]   °F
Weather ElementAverageHighLow
Temperature48.8 °F62.1 °F (2:53 pm)35.1 °F (2:53 am)
Dewpoint26 °F28.9 °F (11:53 pm)23 °F (2:53 pm)
Humidity44.9 %72 % (2:53 am)22 % (2:53 pm)
Barometer30.21 in30.28 in (11:53 pm)30.17 in (1:53 am)
Wind Speed8 mph13.8 mph (9:53 am)
Wind Gust17.3 mph (2:53 pm)
Weather ElementAverage
Visibility10 mi
Wind DirectionSSW (213.9 °)

Weather ElementTotal
Precipitation---
Heating Degree Days16.4 (Base 65)
Averaged from 23 records on January 31, 2013
WEATHER CONDITIONS BREAKOUT
WIND DIRECTION BREAKOUT
WEATHER BY HOUR - JANUARY 31, 2013
[ °C ]   °F
Local TimeTemperatureDewpointHumidityBarometerVisibilityWind DirectionWind SpeedGust SpeedPrecipitationEventsConditions
1:53 AM36.0 °F27.0 °F70 %30.17 in10.0 miSW (230°)3.5 mphClear
2:53 AM35.1 °F27.0 °F72 %30.18 in10.0 miSW (220°)3.5 mphClear
3:53 AM36.0 °F27.0 °F70 %30.17 in10.0 miSSW (210°)5.8 mphClear
4:53 AM36.0 °F27.0 °F70 %30.18 in10.0 miWSW (240°)6.9 mphClear
5:53 AM36.0 °F26.1 °F67 %30.18 in10.0 miSW (230°)4.6 mphClear
6:53 AM35.1 °F26.1 °F70 %30.18 in10.0 miWest (260°)3.5 mphClear
7:53 AM37.9 °F26.1 °F62 %30.22 in10.0 miWSW (240°)6.9 mphClear
8:53 AM44.1 °F28.0 °F53 %30.25 in10.0 miSW (230°)9.2 mphClear
9:53 AM50.0 °F26.1 °F39 %30.25 in10.0 miSW (230°)13.8 mphClear
10:53 AM54.0 °F24.1 °F31 %30.25 in10.0 miWSW (240°)13.8 mphClear
11:53 AM57.0 °F25.0 °F29 %30.23 in10.0 miWest (260°)11.5 mphClear
12:53 PM59.0 °F25.0 °F27 %30.22 in10.0 miWSW (240°)11.5 mphClear
1:53 PM61.0 °F24.1 °F24 %30.19 in10.0 miSW (230°)9.2 mphClear
2:53 PM62.1 °F23.0 °F22 %30.17 in10.0 miSW (230°)11.5 mph17.3 mphClear
3:53 PM62.1 °F23.0 °F22 %30.17 in10.0 miSW (230°)10.4 mphClear
4:53 PM61.0 °F25.0 °F25 %30.17 in10.0 miSSW (210°)13.8 mphClear
5:53 PM59.0 °F24.1 °F26 %30.17 in10.0 miSSW (210°)13.8 mphClear
6:53 PM55.0 °F26.1 °F33 %30.20 in10.0 miSW (220°)5.8 mphClear
7:53 PM54.0 °F27.0 °F35 %30.22 in10.0 miSW (220°)9.2 mphClear
8:53 PM52.0 °F28.0 °F40 %30.24 in10.0 miSSW (200°)6.9 mphClear
9:53 PM50.0 °F27.0 °F41 %30.25 in10.0 miSSW (200°)3.5 mphClear
10:53 PM48.9 °F27.0 °F43 %30.26 in10.0 miCalmClear
11:53 PM41.0 °F28.9 °F62 %30.28 in10.0 miSE (140°)4.6 mphClear
Hourly data recorded from KDTN, located miles away from Plain Dealing, Louisiana







STORIES FROM OUR PARTNERS